Hourly Weather Bolshie Saly

Today, 1 August, Sunday

Time Temperature Precipitation Wind Pressure Humidity
00:00 +26°C° 0 mm 1 mps 750 mmHg 56%
01:00 +26°C° 0 mm 1 mps 750 mmHg 56%
02:00 +26°C° 0 mm 1 mps 750 mmHg 57%
03:00 +26°C° 0 mm 1 mps 750 mmHg 59%
04:00 +25°C° 0.1 mm 1 mps 750 mmHg 61%
05:00 +25°C° 0.1 mm 1 mps 750 mmHg 63%
06:00 +25°C° 0.1 mm 1 mps 750 mmHg 65%
07:00 +27°C° 0 mm 1 mps 750 mmHg 59%
08:00 +30°C° 0 mm 1 mps 751 mmHg 52%
09:00 +32°C° 0 mm 1 mps 751 mmHg 46%
10:00 +33°C° 0 mm 1 mps 751 mmHg 40%
11:00 +35°C° 0 mm 1 mps 750 mmHg 35%
12:00 +36°C° 0 mm 1 mps 750 mmHg 29%
13:00 +37°C° 0 mm 1 mps 750 mmHg 27%
14:00 +37°C° 0 mm 1 mps 750 mmHg 25%
15:00 +37°C° 0 mm 1 mps 750 mmHg 23%
16:00 +38°C° 0 mm 2 mps 750 mmHg 24%
17:00 +37°C° 0 mm 2 mps 750 mmHg 25%
18:00 +37°C° 0 mm 3 mps 749 mmHg 27%
19:00 +35°C° 0 mm 3 mps 750 mmHg 31%
20:00 +33°C° 0 mm 3 mps 750 mmHg 35%
21:00 +30°C° 0 mm 3 mps 750 mmHg 39%
22:00 +30°C° 0 mm 3 mps 750 mmHg 41%
23:00 +29°C° 0 mm 3 mps 750 mmHg 42%

Tomorrow, 2 August, Monday

Time Temperature Precipitation Wind Pressure Humidity
00:00 +29°C° 0 mm 3 mps 750 mmHg 44%
01:00 +28°C° 0 mm 3 mps 750 mmHg 44%
02:00 +28°C° 0 mm 3 mps 750 mmHg 45%
03:00 +27°C° 0 mm 3 mps 750 mmHg 46%
04:00 +27°C° 0 mm 2 mps 750 mmHg 45%
05:00 +27°C° 0 mm 2 mps 750 mmHg 44%
06:00 +27°C° 0 mm 2 mps 750 mmHg 42%
07:00 +29°C° 0 mm 2 mps 750 mmHg 37%
08:00 +31°C° 0 mm 2 mps 750 mmHg 32%
09:00 +34°C° 0 mm 2 mps 751 mmHg 26%
10:00 +36°C° 0 mm 2 mps 750 mmHg 24%
11:00 +37°C° 0 mm 3 mps 750 mmHg 21%
12:00 +39°C° 0 mm 3 mps 750 mmHg 19%
13:00 +39°C° 0 mm 3 mps 750 mmHg 18%
14:00 +40°C° 0 mm 2 mps 749 mmHg 17%
15:00 +40°C° 0 mm 2 mps 749 mmHg 16%
16:00 +40°C° 0 mm 2 mps 749 mmHg 18%
17:00 +39°C° 0 mm 2 mps 748 mmHg 19%
18:00 +39°C° 0 mm 2 mps 748 mmHg 21%
19:00 +37°C° 0 mm 2 mps 748 mmHg 24%
20:00 +35°C° 0 mm 2 mps 749 mmHg 26%
21:00 +32°C° 0 mm 2 mps 749 mmHg 29%
22:00 +31°C° 0 mm 2 mps 749 mmHg 31%
23:00 +31°C° 0 mm 2 mps 749 mmHg 32%

Day after tomorrow, 3 August, Tuesday

Time Temperature Precipitation Wind Pressure Humidity
00:00 +30°C° 0 mm 2 mps 749 mmHg 34%
01:00 +29°C° 0 mm 2 mps 749 mmHg 36%
02:00 +29°C° 0 mm 2 mps 749 mmHg 38%
03:00 +28°C° 0 mm 2 mps 749 mmHg 39%
04:00 +28°C° 0 mm 2 mps 749 mmHg 41%
05:00 +28°C° 0 mm 2 mps 749 mmHg 42%
06:00 +28°C° 0 mm 1 mps 750 mmHg 43%
07:00 +30°C° 0 mm 1 mps 750 mmHg 39%
08:00 +32°C° 0 mm 1 mps 750 mmHg 35%
09:00 +34°C° 0 mm 1 mps 750 mmHg 31%
10:00 +37°C° 0 mm 2 mps 750 mmHg 29%
11:00 +38°C° 0 mm 2 mps 750 mmHg 26%
12:00 +39°C° 0 mm 3 mps 750 mmHg 23%
13:00 +40°C° 0 mm 4 mps 749 mmHg 22%
14:00 +41°C° 0 mm 5 mps 749 mmHg 22%
15:00 +41°C° 0 mm 6 mps 749 mmHg 21%
16:00 +40°C° 0 mm 6 mps 749 mmHg 24%
17:00 +39°C° 0 mm 6 mps 749 mmHg 27%
18:00 +38°C° 0 mm 6 mps 749 mmHg 30%
19:00 +35°C° 0 mm 6 mps 749 mmHg 36%
20:00 +33°C° 0 mm 6 mps 750 mmHg 42%
21:00 +30°C° 0 mm 6 mps 750 mmHg 48%
22:00 +29°C° 0 mm 5 mps 751 mmHg 53%
23:00 +28°C° 0 mm 4 mps 751 mmHg 58%

4 August, Wednesday

Time Temperature Precipitation Wind Pressure Humidity
00:00 +26°C° 0 mm 3 mps 752 mmHg 63%
01:00 +26°C° 0 mm 3 mps 752 mmHg 66%
02:00 +25°C° 0 mm 3 mps 752 mmHg 69%
03:00 +24°C° 0 mm 3 mps 752 mmHg 72%
04:00 +24°C° 0 mm 3 mps 752 mmHg 71%
05:00 +24°C° 0 mm 3 mps 752 mmHg 71%
06:00 +24°C° 0 mm 3 mps 753 mmHg 70%
07:00 +26°C° 0 mm 3 mps 753 mmHg 62%
08:00 +28°C° 0 mm 3 mps 753 mmHg 53%
09:00 +29°C° 0 mm 3 mps 753 mmHg 45%
10:00 +31°C° 0 mm 3 mps 753 mmHg 40%
11:00 +33°C° 0 mm 3 mps 753 mmHg 35%
12:00 +35°C° 0 mm 3 mps 753 mmHg 31%
13:00 +35°C° 0 mm 3 mps 753 mmHg 29%
14:00 +35°C° 0 mm 3 mps 753 mmHg 27%
15:00 +36°C° 0 mm 4 mps 752 mmHg 26%
16:00 +35°C° 0 mm 4 mps 752 mmHg 26%
17:00 +35°C° 0 mm 4 mps 752 mmHg 26%
18:00 +34°C° 0 mm 5 mps 752 mmHg 27%
19:00 +33°C° 0 mm 4 mps 752 mmHg 29%
20:00 +30°C° 0 mm 4 mps 752 mmHg 32%
21:00 +28°C° 0 mm 3 mps 753 mmHg 35%
22:00 +27°C° 0 mm 3 mps 753 mmHg 36%
23:00 +26°C° 0 mm 3 mps 753 mmHg 37%

5 August, Thursday

Time Temperature Precipitation Wind Pressure Humidity
00:00 +26°C° 0 mm 3 mps 753 mmHg 39%
01:00 +25°C° 0 mm 3 mps 753 mmHg 40%
02:00 +25°C° 0 mm 4 mps 753 mmHg 41%
03:00 +25°C° 0 mm 4 mps 753 mmHg 42%
04:00 +24°C° 0 mm 3 mps 753 mmHg 44%
05:00 +24°C° 0 mm 3 mps 754 mmHg 45%
06:00 +24°C° 0 mm 3 mps 754 mmHg 46%
07:00 +26°C° 0 mm 3 mps 754 mmHg 42%
08:00 +28°C° 0 mm 3 mps 754 mmHg 37%
09:00 +30°C° 0 mm 3 mps 754 mmHg 33%
10:00 +31°C° 0 mm 3 mps 754 mmHg 30%
11:00 +33°C° 0 mm 3 mps 754 mmHg 27%
12:00 +35°C° 0 mm 3 mps 753 mmHg 24%
13:00 +35°C° 0 mm 3 mps 753 mmHg 23%
14:00 +36°C° 0 mm 3 mps 753 mmHg 22%
15:00 +36°C° 0 mm 3 mps 752 mmHg 21%
16:00 +36°C° 0 mm 3 mps 752 mmHg 21%
17:00 +35°C° 0 mm 4 mps 752 mmHg 21%
18:00 +35°C° 0 mm 4 mps 752 mmHg 22%
19:00 +33°C° 0 mm 4 mps 752 mmHg 25%
20:00 +30°C° 0 mm 4 mps 752 mmHg 28%
21:00 +28°C° 0 mm 4 mps 752 mmHg 31%
22:00 +27°C° 0 mm 4 mps 752 mmHg 32%
23:00 +27°C° 0 mm 4 mps 752 mmHg 32%

6 August, Friday

Time Temperature Precipitation Wind Pressure Humidity
00:00 +26°C° 0 mm 4 mps 752 mmHg 33%
01:00 +25°C° 0 mm 4 mps 751 mmHg 33%
02:00 +25°C° 0 mm 4 mps 751 mmHg 33%
03:00 +23°C° 0 mm 4 mps 751 mmHg 32%
04:00 +23°C° 0 mm 4 mps 751 mmHg 32%
05:00 +23°C° 0 mm 4 mps 752 mmHg 33%
06:00 +23°C° 0 mm 4 mps 752 mmHg 33%
07:00 +27°C° 0 mm 5 mps 752 mmHg 31%
08:00 +29°C° 0 mm 5 mps 751 mmHg 29%
09:00 +33°C° 0 mm 6 mps 751 mmHg 28%
10:00 +34°C° 0 mm 6 mps 751 mmHg 27%
11:00 +36°C° 0 mm 6 mps 750 mmHg 26%
12:00 +38°C° 0 mm 6 mps 750 mmHg 25%
13:00 +39°C° 0 mm 6 mps 749 mmHg 24%
14:00 +39°C° 0 mm 6 mps 749 mmHg 23%
15:00 +40°C° 0 mm 6 mps 749 mmHg 23%
16:00 +39°C° 0 mm 5 mps 748 mmHg 24%
17:00 +39°C° 0 mm 5 mps 748 mmHg 25%
18:00 +37°C° 0 mm 5 mps 748 mmHg 26%
19:00 +36°C° 0.1 mm 6 mps 748 mmHg 28%
20:00 +34°C° 0.1 mm 6 mps 748 mmHg 29%
21:00 +33°C° 0.1 mm 6 mps 748 mmHg 31%
22:00 +30°C° 0.4 mm 6 mps 748 mmHg 36%
23:00 +28°C° 0.4 mm 6 mps 748 mmHg 41%
Show more

We Need Your Consent

Meteoprog and our Service Providers may store and access personal data such as cookies, device identifiers or other similar technologies on your device and process such data to personalise content and ads, as well as provide social media features and to analyse the traffic.

  • Store and/or access information on your device

    Cookies, device identifiers or other information can be stored or accessed on your device for the purposes indicated above.

  • Personalised ads and content, ad and content measurement, audience insights, and products development

    Ads and content can be personalised based on a profile. More data can be added to better personalise ads and content. Ad and content performance can be measured. Insights about the audience who saw the ads and content can be derived. Such data can be used to develop or improve user’s experience, systems and software.

By clicking ‘I Agree’ you will allow the use of indicated cookies, device identifiers, web beacons or other similar technologies. Your settings can be changed in the browser on your device.

For certain purposes, legitimate interests may be relied on, rather than consent. You can read more about this in our Privacy and Cookie Policy.